"Pseudo-MPEC" for CD8XKX2
Created 2025 Apr 27 22:31:07 UT using Find_Orb
Click here for an explanation of pseudo-MPECs
Astrometry:
CD8XKX2*1C2025 04 26.36847114 33 53.888+02 48 36.36 ~4Q9l 20.80GVNEOCPG96
CD8XKX2 1C2025 04 26.37364214 33 59.432+02 48 19.87 ~4Q9l VNEOCPG96
CD8XKX2 1C2025 04 26.37879914 34 04.876+02 48 02.52 ~4Q9l 20.55GVNEOCPG96
CD8XKX2 1C2025 04 26.38394314 34 10.348+02 47 45.74 ~4Q9l 20.41GVNEOCPG96
CD8XKX2 KC2025 04 26.46066414 35 33.511+02 43 30.68 ~4QBV 20.42GVNEOCPI52
CD8XKX2 KC2025 04 26.46179914 35 34.717+02 43 27.12 ~4QBV 20.96GVNEOCPI52
CD8XKX2 KC2025 04 26.46293514 35 36.006+02 43 22.87 ~4QBV 20.17GVNEOCPI52
CD8XKX2 KC2025 04 26.46407614 35 37.230+02 43 18.48 ~4QBV 20.85GVNEOCPI52
CD8XKX2 KC2025 04 26.57992014 37 59.774+02 41 33.54 ~4QEV 20.1 GWNEOCP474
CD8XKX2 KC2025 04 26.58410214 38 04.428+02 41 20.11 ~4QEV 20.9 GWNEOCP474
CD8XKX2 KC2025 04 26.58828514 38 09.077+02 41 04.99 ~4QEV 20.1 GWNEOCP474
CD8XKX2 KC2025 04 26.96541814 45 51.78 +02 13 25.8 ~4QNl 20.4 GVNEOCPL01
CD8XKX2 KC2025 04 26.96739514 45 54.10 +02 13 19.3 ~4QNl 20.4 GVNEOCPL01
CD8XKX2 KC2025 04 26.96986514 45 57.00 +02 13 09.6 ~4QNl 20.6 GVNEOCPL01
CD8XKX2 |C2025 04 27.18102014 50 28.760+02 04 51.30 ~4R8l 20.6 GVNEOCP807
CD8XKX2 |C2025 04 27.18295014 50 31.100+02 04 43.90 ~4R8l 20.5 GVNEOCP807
CD8XKX2 |C2025 04 27.18488014 50 33.440+02 04 36.60 ~4R8l 20.4 GVNEOCP807
CD8XKX2 KC2025 04 27.31033314 53 16.624+01 52 18.08 ~4R7l VNEOCPI52
CD8XKX2 KC2025 04 27.31105914 53 17.574+01 52 16.28 ~4R7l 20.06GVNEOCPI52
CD8XKX2 KC2025 04 27.31178514 53 18.434+01 52 13.51 ~4R7l 19.93GVNEOCPI52
CD8XKX2 KC2025 04 27.31251214 53 19.338+01 52 10.42 ~4R7l 20.92GVNEOCPI52
Station data:
(474) Mount John Observatory, Lake Tekapo (S43.987385 E170.464960) New
Zealand. Observers A. C. Gilmore, P. M. Kilmartin. Measurer P. M.
Kilmartin. 1.0-m f/7.7 reflector + CCD.
(807) Cerro Tololo Observatory, La Serena (S30.169133 W70.805900) Chile.
Observer R. Holmes. 0.61-m f/6.5 astrograph + CCD.
(G96) Mt. Lemmon Survey (N32.442729 W110.788720) US/Arizona. Observer E.
J. Christensen. + 10K CCD.
(I52) Steward Observatory, Mt. Lemmon Station (N32.442570 W110.788920)
US/Arizona. Observers T. A. Pruyne, B. M. Africano, E. J. Christensen, G.
A. Farneth, D. C. Fuls, A. R. Gibbs, A. D. Grauer, H. Gröller, J. A.
Johnson, R. A. Kowalski, S. M. Larson, G. J. Leonard, D. Rankin, R. L.
Seaman, F. C. Shelly, K. W. Wierzchoś. 1.0-m prime focus + CCD.
(L01) Višnjan Observatory, Tičan (N45.290897 E13.749300) Croatia.
Observers K. Korlević, D. Pujagic, V. Dobos. Measurers D. Pujagic, K.
Korlević. 1.0-m f/2.9 reflector + CCD.
Orbital elements: CD8XKX2
Perihelion 2025 May 17.09601 +/- 0.0178 TT = 2:18:15 (JD 2460812.59601)
Epoch 2025 Apr 27.0 TT = JDT 2460792.5 Earth MOID: 0.0004 Ma: 0.0109
M 353.29062154 +/- 0.011 (J2000 ecliptic) AutoNEOCP
n 0.33386619 +/- 0.00049 Peri. 178.31237 +/- 0.06
a 2.05788492 +/- 0.00201 Node 61.80362 +/- 0.043
e 0.5079005 +/- 0.000483 Incl. 1.43402 +/- 0.0024
P 2.95210 H 26.91 G 0.15 U 7.6
q 1.01268406 +/- 5.83e-5 Q 3.10308578 +/- 0.00403
From 21 observations 2025 Apr. 26-27 (22.7 hr); mean residual 0".32
Residuals in arcseconds: 250426 G96 .20- .32- 250426 I52 .29- .40- 250427 807 .20+ .12+ 250426 G96 .58+ .16+ 250426 474 .23- .27- 250427 807 .21+ .05+ 250426 G96 .05- .24- 250426 474 .08- .49+ 250427 807 .21+ .08+ 250426 G96 .19- .09- 250426 474 .11- .43- 250427 I52 .48- .95- 250426 I52 .42+ .32+ 250426 L01 .34+ .14- 250427 I52 .28+ .09+ 250426 I52 .27- .58+ 250426 L01 .05+ .62+ 250427 I52 .31- .17+ 250426 I52 .26+ .15+ 250426 L01 .31- .01- 250427 I52 .25- .08- Ephemerides (geocentric): Date (UTC) HH RA Dec delta r elong mag " sig PA ---- -------- ------------ ------------ ------ ------ ----- --- -------- 2025 04 27 23 15 08 17.592 +01 09 32.60 .03405 1.0389 160.8 20.6 .215 94 2025 04 28 00 15 09 18.780 +01 06 28.58 .03394 1.0388 160.7 20.6 .229 94 2025 04 28 01 15 10 20.356 +01 03 23.21 .03383 1.0387 160.6 20.6 .243 94 2025 04 28 02 15 11 22.320 +01 00 16.50 .03373 1.0386 160.5 20.6 .257 94 2025 04 28 03 15 12 24.675 +00 57 08.45 .03362 1.0385 160.4 20.6 .271 94 2025 04 28 04 15 13 27.421 +00 53 59.04 .03351 1.0384 160.3 20.6 .287 94 2025 04 28 05 15 14 30.558 +00 50 48.29 .03341 1.0383 160.2 20.6 .302 93 2025 04 28 06 15 15 34.089 +00 47 36.19 .03330 1.0382 160.0 20.6 .318 93 2025 04 28 07 15 16 38.012 +00 44 22.75 .03320 1.0381 159.9 20.6 .334 93 2025 04 28 08 15 17 42.331 +00 41 07.95 .03309 1.0380 159.8 20.6 .351 93 2025 04 28 09 15 18 47.044 +00 37 51.81 .03299 1.0378 159.7 20.6 .368 93 2025 04 28 10 15 19 52.153 +00 34 34.32 .03289 1.0377 159.5 20.6 .385 93 2025 04 28 11 15 20 57.659 +00 31 15.49 .03279 1.0376 159.4 20.6 .403 93 2025 04 28 12 15 22 03.561 +00 27 55.31 .03269 1.0375 159.3 20.6 .421 93 2025 04 28 13 15 23 09.861 +00 24 33.80 .03259 1.0374 159.1 20.6 .440 93 2025 04 28 14 15 24 16.558 +00 21 10.94 .03249 1.0373 159.0 20.6 .459 93 2025 04 28 15 15 25 23.653 +00 17 46.75 .03239 1.0372 158.9 20.6 .479 93 2025 04 28 16 15 26 31.147 +00 14 21.23 .03230 1.0371 158.7 20.6 .499 93 2025 04 28 17 15 27 39.039 +00 10 54.39 .03220 1.0370 158.6 20.6 .519 93 2025 04 28 18 15 28 47.329 +00 07 26.22 .03211 1.0369 158.4 20.6 .540 93 2025 04 28 19 15 29 56.018 +00 03 56.73 .03201 1.0368 158.3 20.6 .562 93 2025 04 28 20 15 31 05.105 +00 00 25.93 .03192 1.0366 158.1 20.5 .583 93 2025 04 28 21 15 32 14.590 -00 03 06.18 .03183 1.0365 158.0 20.5 .605 93 2025 04 28 22 15 33 24.473 -00 06 39.59 .03173 1.0364 157.8 20.5 .628 93 2025 04 28 23 15 34 34.754 -00 10 14.30 .03164 1.0363 157.6 20.5 .651 93 2025 04 29 00 15 35 45.433 -00 13 50.29 .03155 1.0362 157.5 20.5 .675 93 2025 04 29 01 15 36 56.508 -00 17 27.57 .03147 1.0361 157.3 20.5 .699 93 2025 04 29 02 15 38 07.979 -00 21 06.11 .03138 1.0360 157.1 20.5 .723 93 2025 04 29 03 15 39 19.845 -00 24 45.92 .03129 1.0359 157.0 20.5 .748 93 2025 04 29 04 15 40 32.106 -00 28 26.98 .03120 1.0358 156.8 20.5 .774 93 2025 04 29 05 15 41 44.761 -00 32 09.29 .03112 1.0357 156.6 20.5 .800 93 2025 04 29 06 15 42 57.809 -00 35 52.84 .03103 1.0356 156.4 20.5 .826 93 2025 04 29 07 15 44 11.249 -00 39 37.60 .03095 1.0355 156.2 20.5 .853 93 2025 04 29 08 15 45 25.079 -00 43 23.58 .03087 1.0354 156.1 20.5 .880 93 2025 04 29 09 15 46 39.298 -00 47 10.76 .03079 1.0353 155.9 20.5 .908 93 2025 04 29 10 15 47 53.905 -00 50 59.13 .03071 1.0352 155.7 20.5 .936 93 2025 04 29 11 15 49 08.899 -00 54 48.68 .03063 1.0351 155.5 20.5 .965 94 2025 04 29 12 15 50 24.277 -00 58 39.38 .03055 1.0350 155.3 20.5 0.99 94 2025 04 29 13 15 51 40.039 -01 02 31.24 .03047 1.0349 155.1 20.5 1.02 94 2025 04 29 14 15 52 56.182 -01 06 24.23 .03039 1.0348 154.9 20.5 1.05 94 2025 04 29 15 15 54 12.704 -01 10 18.34 .03032 1.0346 154.7 20.5 1.08 94 2025 04 29 16 15 55 29.604 -01 14 13.55 .03024 1.0345 154.5 20.5 1.12 94 2025 04 29 17 15 56 46.878 -01 18 09.84 .03017 1.0344 154.3 20.5 1.15 94 2025 04 29 18 15 58 04.526 -01 22 07.21 .03010 1.0343 154.1 20.5 1.18 94 2025 04 29 19 15 59 22.544 -01 26 05.63 .03003 1.0342 153.8 20.5 1.21 94 2025 04 29 20 16 00 40.930 -01 30 05.08 .02996 1.0341 153.6 20.5 1.25 94 2025 04 29 21 16 01 59.681 -01 34 05.55 .02989 1.0340 153.4 20.5 1.28 94 2025 04 29 22 16 03 18.795 -01 38 07.01 .02982 1.0339 153.2 20.5 1.31 94